Weather in Vilamoura

Portugal     37°06′14″N   8°07′18″W
В апреле 2022 года жителям России запретили посещать сайт meteo.paraplan.net по решению Генеральной прокуратуры. Аудитория сайта уменьшилась в 10 раз. Владельцы сайта не видят смысла в поддержке погодного сервера в таких условиях. Сайт будет закрыт в октябре.
temp.,
°C
wind,
m/s
gust,
m/s
humid.,
%
clouds,
%
prec.,
mm/h
press.,
hPa
HPBL,
m
30 september, fri
fri3001:00+17nnw813700 0.0 1013624
04:00+16n813750 0.0 1013522
07:00+16n610750 0.0 1014360
10:00+19n67560 0.0 1016649
13:00+22n224822 0.0 1017504
16:00+21ssw655310 0.0 1016771
19:00+21sw456192 0.0 1016111
22:00+20nnw58545 0.0 1018183
1 october, sat
sat101:00+19n695310 0.0 1019169
04:00+19nne58507 0.0 1019161
07:00+19ne3548100 0.0 1020136
10:00+21ene4647100 0.0 1022323
13:00+22ese6749100 0.0 1022552
16:00+23ese5649100 0.0 1021343
19:00+22e33479 0.0 102122
22:00+21se22522 0.0 102219
2 october, sun
sun201:00+20e686912 0.0 1022261
04:00+20ene69650 0.0 1021330
07:00+19ene610580 0.0 1020307
10:00+21ene811540 0.0 1021431
13:00+23e811540 0.0 1020464
16:00+23ese685198 0.0 1018390
19:00+22e69690 0.0 1018211
22:00+21e712725 0.0 1018310
3 october, mon
mon301:00+21e58723 0.0 1017133
04:00+22e5964100 0.0 1017161
07:00+21ese81277100 0.0 1017416
10:00+22ese688274 0.0 1019320
13:00+23e557995 0.0 1019256
16:00+22ese458292 0.0 1018175
19:00+21se338673 0.0 101866
22:00+21nnw11860 0.0 101911
4 october, tue
tue401:00+21nnw11760 0.0 101811
04:00+21nnw22660 0.0 101716
07:00+21ese22690 0.0 101813
10:00+22sse11670 0.0 101977
13:00+23ssw32630 0.0 1019324
16:00+22sw44650 0.0 1017195
19:00+21wsw45780 0.0 101776
22:00+21w44760 0.0 101868